Location: Équennes
(49.7375°N, 1.9622°E)
Time: 20:38:59
(UTC+00:00)

deb r/b Ablestar - Visible Passes

Search period start: 27 February 2024 00:00
Search period end: 08 March 2024 00:00
Orbit: 777 x 883 km, 66.7° (Epoch: 26 February)

Date Brightness Start Highest point End Pass type
(mag) Time Alt. Az. Time Alt. Az. Time Alt. Az.
27 Feb ? 04:55:51 10° SSW 05:01:10 60° ESE 05:06:42 10° NE visible
28 Feb ? 04:37:21 12° SSW 04:42:20 55° ESE 04:47:48 10° NE visible
29 Feb ? 04:19:47 19° S 04:23:30 51° ESE 04:28:55 10° NE visible
01 Mar ? 04:02:04 27° S 04:04:40 47° ESE 04:10:01 10° NE visible
01 Mar ? 05:43:57 10° WSW 05:49:06 40° NW 05:54:26 10° NNE visible
02 Mar ? 03:44:12 35° SSE 03:45:49 44° ESE 03:51:07 10° NE visible
02 Mar ? 05:25:47 14° WSW 05:30:12 42° NW 05:35:35 10° NNE visible
03 Mar ? 03:26:14 39° SE 03:27:00 41° ESE 03:32:13 10° NE visible
03 Mar ? 05:07:48 20° WSW 05:11:17 45° NW 05:16:44 10° NNE visible
04 Mar ? 03:08:11 38° ESE 03:08:11 38° ESE 03:13:18 10° NE visible
04 Mar ? 04:49:45 27° WSW 04:52:23 48° NW 04:57:52 10° NNE visible
05 Mar ? 02:50:03 33° E 02:50:03 33° E 02:54:22 10° NE visible
05 Mar ? 04:31:37 36° W 04:33:29 51° NW 04:39:01 10° NNE visible
06 Mar ? 02:31:52 29° E 02:31:52 29° E 02:35:26 10° NE visible
06 Mar ? 04:13:25 45° W 04:14:35 54° NW 04:20:09 10° NNE visible
07 Mar ? 02:13:37 24° ENE 02:13:37 24° ENE 02:16:29 10° NE visible
07 Mar ? 03:55:10 55° WNW 03:55:41 57° NW 04:01:18 10° NNE visible
07 Mar ? 05:37:10 10° WNW 05:41:14 20° NNW 05:45:24 10° NNE visible
